Photometre #117[Polarized_P] IAOCA-KRSU AOT

File : 20221126_117.hum

26/11/2022,02:47:58,TEMP=3.8,BA=5.64,STAT.A
26/11/2022,02:52:23,TEMP=4.1,BA=5.64,STAT.A
26/11/2022,02:57:36,TEMP=4.4,BA=5.64,STAT.A
26/11/2022,03:03:54,TEMP=4.7,BA=5.64,STAT.A
26/11/2022,03:11:37,TEMP=4.8,BA=5.64,STAT.A
26/11/2022,03:21:22,TEMP=5.0,BA=5.64,STAT.A
26/11/2022,03:33:25,TEMP=5.1,BA=5.64,STAT.F
26/11/2022,03:48:25,TEMP=5.0,BA=5.64,STAT.D
26/11/2022,04:03:25,TEMP=4.9,BA=5.64,STAT.D
26/11/2022,04:18:25,TEMP=5.1,BA=5.64,STAT.D
26/11/2022,04:33:25,TEMP=5.3,BA=5.64,STAT.F
26/11/2022,04:49:53,TEMP=5.6,BA=5.64,STAT.D
26/11/2022,05:03:25,TEMP=5.7,BA=5.64,STAT.D
26/11/2022,05:18:25,TEMP=5.8,BA=5.64,STAT.D
26/11/2022,05:33:25,TEMP=5.4,BA=5.64,STAT.F
26/11/2022,05:48:25,TEMP=5.0,BA=5.64,STAT.D
26/11/2022,06:03:26,TEMP=4.2,BA=5.64,STAT.D
26/11/2022,06:18:26,TEMP=3.6,BA=5.64,STAT.D
26/11/2022,06:33:25,TEMP=3.8,BA=5.64,STAT.F
26/11/2022,06:49:53,TEMP=4.3,BA=5.64,STAT.D
26/11/2022,07:03:26,TEMP=4.4,BA=5.64,STAT.D
26/11/2022,07:18:25,TEMP=4.3,BA=5.64,STAT.D
26/11/2022,07:33:25,TEMP=4.5,BA=5.64,STAT.F
26/11/2022,07:48:25,TEMP=4.7,BA=5.64,STAT.D
26/11/2022,08:03:25,TEMP=4.5,BA=5.64,STAT.D
26/11/2022,08:18:25,TEMP=4.2,BA=5.64,STAT.D
26/11/2022,08:33:27,TEMP=4.1,BA=5.64,STAT.F
26/11/2022,08:48:27,TEMP=4.5,BA=5.64,STAT.D
26/11/2022,09:03:25,TEMP=4.3,BA=5.64,STAT.D
26/11/2022,09:18:25,TEMP=4.1,BA=5.64,STAT.D
26/11/2022,09:33:25,TEMP=3.6,BA=5.64,STAT.F
26/11/2022,09:45:28,TEMP=3.5,BA=5.64,STAT.A
26/11/2022,09:55:13,TEMP=3.3,BA=5.64,STAT.A
26/11/2022,10:02:56,TEMP=3.3,BA=5.64,STAT.A
26/11/2022,10:09:14,TEMP=3.2,BA=5.64,STAT.A
26/11/2022,10:14:27,TEMP=3.1,BA=5.64,STAT.A
26/11/2022,10:18:52,TEMP=3.1,BA=5.64,STAT.A